Погода METAR - Абакан

Кемерово, Абакан, Красноярск, Новосибирск
Код METAR: UNAA 121100Z 02004G09MPS 350V060 CAVOK 27/13 Q1008 R02/CLRD65 NOSIG RMK QFE733

Погода - Сейчас

Время: 2022-08-12 18:00, местное
Направление ветра: Север-северо-восток (20°)
Скорость ветра: 4 м/с , порывы до 9 м/с
Видимость:
Температура: 27°C
Точка росы: 13°C
Атмосферное давление: 1008 гПа

Архив погоды

Время, местное Направление Скорость, м/с Температура, °C Точка росы, °C Давление, гПа
2022-08-12 18:00 ССВ (20°) 4, порывы до 9 27 13 1008
2022-08-11 14:30 С (10°) 3 29 11 1010
2022-08-11 10:00 СВ (30°) 3 24 14 1011
2022-08-11 03:30 ЗЮЗ (250°) 1 15 10 1010
2022-08-10 19:30 ССВ (20°) 3 26 11 1009
2022-08-10 13:30 СВ (40°) 3 27 9 1009
2022-08-10 00:30 С (10°) 2 18 10 1007
2022-08-08 11:30 Переменный 1 22 10 1010
2022-08-06 12:00 Переменный 2 22 8 1016
2022-08-06 07:30 Штиль 0 14 9 1016
2022-08-06 02:00 Штиль 0 11 9 1015
2022-08-04 21:30 С (350°) 3 17 9 1015
2022-08-04 19:30 С (10°) 4 19 11 1014
2022-08-03 11:00 С (350°) 2 18 11 1013
2022-08-02 22:30 ССЗ (340°) 5 15 11 1010
2022-08-01 04:00 ЮЗ (230°) 1 15 14 1003
2022-07-29 20:00 С (360°) 3 25 13 1002
2022-07-29 19:30 ССВ (20°) 4 26 13 1002
2022-07-19 11:30 Ю (190°) 7 22 10 1006
2022-07-22 06:00 ЮВ (140°) 2 16 12 1000
2022-07-16 00:00 Переменный 1 16 11 1012
2022-07-15 16:00 Переменный 2 23 3 1013
2022-07-12 23:00 ССЗ (330°) 2 17 8 1010
2022-07-12 15:30 С (10°) 5 26 9 1009
2022-07-10 22:00 ССЗ (340°) 3 21 11 1009
2022-07-10 17:00 ССВ (20°) 6 28 9 1008
2022-07-09 17:00 С (10°) 6 25 10 1008
2022-07-06 09:30 ЗЮЗ (240°) 5 21 11 1003
2022-07-08 22:30 Штиль 0 18 14 1011
2022-07-07 09:30 ЮЮЗ (200°) 5 18 14 1008
2022-07-07 03:30 ЮЮЗ (200°) 6 17 12 1007
2022-07-04 18:30 С (360°) 5 24 11 1006
2022-07-04 16:30 ЮЮВ (150°) 2 25 9 1006
2022-07-03 02:00 Штиль 0 14 11 1007
2022-07-02 18:30 ЗЮЗ (260°) 7 21 8 1007
2022-07-02 01:30 ЮЮЗ (200°) 1 16 15 1003
2022-06-29 11:00 Переменный 1 25 9 1006
2022-06-29 03:00 Переменный 1 12 7 1008
2022-06-28 05:30 Ю (190°) 3 22 14 999
2022-06-27 21:00 ЮЗ (220°) 3 29 16 997
2022-06-27 08:30 Ю (170°) 3 29 14 1002
2022-06-27 00:00 ЮЗ (220°) 3 25 14 1000
2022-06-26 04:30 ЮЗ (210°) 3 18 13 1006
2022-06-24 18:00 З (270°) 5 26 10 1004
2022-06-21 23:30 ССВ (20°) 1 16 13 1004
2022-06-21 23:00 Штиль 0 17 13 1004
2022-06-21 12:30 Переменный 1 24 13 1004
2022-06-18 19:30 ЗЮЗ (240°) 1 20 13 1006